Regional Weather Roundup
Issued by NWS Jackson, KY

Home | Current Version | Previous Version | Text Only | Print | Product List | Glossary Off
Versions: 1 2 3 4 5 6 7 8 9 10 11 12 13 14 15 16 17 18 19 20 21 22 23 24 25 26 27 28 29 30 31 32 33 34 35 36 37 38 39 40 41 42 43 44 45 46 47 48 49 50

000
ASUS43 KJKL 222110
RWRJKL

EAST KENTUCKY HOURLY WEATHER ROUNDUP
NATIONAL WEATHER SERVICE JACKSON KY
500 PM EDT FRI MAY 22 2015

NOTE: "FAIR" INDICATES FEW OR NO CLOUDS BELOW 12,000 FEET WITH
NO SIGNIFICANT WEATHER AND/OR OBSTRUCTIONS TO VISIBILITY.

* THESE REPORTS ARE NOT UNDER NWS QUALITY CONTROL AND MAY NOT
  REPORT WEATHER SUCH AS PRECIPITATION AND FOG.

KYZ079-080-083-085-087-088-110-112-115-119-120-222200
...EASTERN KENTUCKY...

CITY           SKY/WX    TMP DP  RH WIND       PRES   REMARKS
JACKSON        SUNNY     69  41  36 VRB3      30.26F
LONDON         SUNNY     72  39  30 MISG      30.26F
SOMERSET*      SUNNY     70  41  35 W5        30.27F
MONTICELLO*    SUNNY     73  43  34 VRB6      30.29F
MIDDLESBORO*   SUNNY     70  42  36 N8        30.26F
HARLAN APT*    CLEAR     70  36  28 NW7       30.26F
HAZARD APT*    CLEAR     70  41  35 W5        30.26F
BLACK MTN*       N/A     59  41  51 VRB7        N/A
PIKEVILLE APT* SUNNY     68  45  42 W7        30.26S
BIG SANDY*     CLEAR     70  45  40 SW8       30.25F
MOREHEAD APT*  CLEAR     72  41  33 VRB6G12   30.26F
$$

KYZ035-036-041-042-044-050-067-078-099-222200
...CENTRAL KENTUCKY...

CITY           SKY/WX    TMP DP  RH WIND       PRES   REMARKS
MT STERLING*   SUNNY     70  41  35 W8        30.26S
FLEMING/MASON* MOSUNNY   70  45  40 SW10      30.25S
DANVILLE*      SUNNY     72  43  35 W5        30.26F
RICHMOND*      SUNNY     72  41  33 W6        30.25S
LEXINGTON      SUNNY     73  44  35 W12       30.25S
FRANKFORT      SUNNY     73  43  33 SW7       30.23S
$$

KYZ091>093-OHZ055-061-077-WVZ005-015-034-035-042-222200
...SOUTHERN OHIO/WEST VIRGINIA...

CITY           SKY/WX    TMP DP  RH WIND       PRES   REMARKS
COVINGTON      PTSUNNY   74  47  38 SW14      30.21S
COLUMBUS       PTSUNNY   70  49  47 N9G17     30.17S
DAYTON         MOSUNNY   75  46  35 NW14      30.19S
WILMINGTON     MOSUNNY   73  42  32 W16       30.19S
HUNTINGTON     MOSUNNY   72  41  32 SW10G17   30.21F
CHARLESTON     PTSUNNY   72  45  37 W12G17    30.22S
PINEVILLE*     SUNNY     70  45  40 MISG      30.30R
BECKLEY        MOSUNNY   66  38  35 NW7       30.25S
BLUEFIELD      MOSUNNY   65  39  38 W12G17    30.28R
$$

VAZ002-007-008-TNZ017-027-036-066-071-222200
...SOUTHWEST VIRGINIA/EAST TENNESSEE...

CITY           SKY/WX    TMP DP  RH WIND       PRES   REMARKS
WISE*          SUNNY     66  36  32 N6        30.30R
JONESVILLE*    CLEAR     72  41  33 CALM      30.27F
ABINGDON*      SUNNY     68  39  34 N5        30.27R
BRISTOL        MOSUNNY   71  37  28 VRB3      30.25S
KNOXVILLE      MOSUNNY   72  41  32 NE9       30.23F
OAK RIDGE      SUNNY     74  40  29 MISG      30.25F
CROSSVILLE     SUNNY     69  39  33 N6        30.27F
NASHVILLE      MOSUNNY   73  42  32 CALM      30.26S
$$

...KEY TO REMARKS...
VSB - VISIBILITY IN MILES
WCI - WIND CHILL INDEX
HX  - HEAT INDEX

$$


USA.gov is the U.S. government's official web portal to all federal, state and local government web resources and services.